Location: Gradaro
(45.0833°N, 10.8833°E)
Time: 13:56:59
(UTC+00:00)

SL-4 R/B - Pass Details

Date: 29 November 2020
Orbit: 428 x 664 km, 51.6° (Epoch: 24 January)

Event Time Altitude Azimuth Distance (km) Brightness Sun altitude
Exits shadow 05:51:00 - 303° (WNW) 1,786 4.0 -7.4°
Reaches altitude 10° 05:51:11 10° 304° (NW) 1,717 3.9 -7.4°
Maximum altitude 05:54:45 34° 12° (NNE) 801 2.8 -6.8°
Drops below altitude 10° 05:58:05 10° 79° (E) 1,604 5.3 -6.3°
Sets 06:00:17 0° 89° (E) 2,447 6.7 -5.9°
